Flag for Ireland Weather past 2 weeks in Cork, Ireland

Now
45 °F

Passing clouds.


Feels Like: 42 °F
Forecast: 40 / 50 °F
Wind: 6 mph from Northwest

Location: Cork Airport

Current Time: Jan 26, 2015 at 4:32:34 AM

Latest Report: Jan 26, 2015 at 2:00 AM


Visibility: 16 mi

Pressure: 30.27 "Hg

Humidity: 92%

Dew point: 43 °F

Location of CorkLocation

Historic Weather in Cork — Graph

°F

Cork temperature yesterday

Maximum temperature yesterday: 51 °F (at 1:00 PM)
Minimum temperature yesterday: 42 °F (at 12:00 AM)
Average temperature yesterday: 48 °F

Past Weeks' High & Low Weather Summary

 TemperatureHumidityPressure
High51 °F (Jan 23, 1:00 PM)100% (Jan 13, 6:00 AM)30.51 "Hg (Jan 13, 6:00 AM)
Low29 °F (Jan 14, 6:00 AM)59% (Jan 24, 1:00 PM)28.76 "Hg (Jan 14, 8:00 PM)
Average39 °F91%29.86 "Hg
* Reported Jan 11 2:00 AM — Jan 26 2:00 AM, Cork, Weather by CustomWeather, © 2014

Note: Actual official high and low records may vary slightly from our data, if they occured in-between our weather recording intervals... More about our weather records

Advertising

Cork weather history for previous 24 hours

 ConditionsComfort  
Time TempWeatherWind HumidityBarometerVisibility
2:00 AM
Jan 26
45 °FPassing clouds.6 mph92%30.27 "Hg16 mi
1:00 AM46 °FOvercast.5 mph94%30.26 "Hg16 mi
12:00 AM49 °FRain. Low clouds.7 mph100%30.24 "Hg7 mi
11:00 PM
Jan 25
49 °FRain. Low clouds.7 mph100%30.23 "Hg6 mi
10:00 PM49 °FDrizzle. Low clouds.8 mph100%30.23 "Hg5 mi
8:00 PM49 °FDrizzle. Low clouds.6 mph100%30.26 "Hg5 mi
7:00 PM49 °FDrizzle. Low clouds.6 mph100%30.27 "Hg5 mi
6:00 PM49 °FDrizzle. Low clouds.7 mph100%30.28 "Hg7 mi
5:00 PM49 °FLow clouds.8 mph99%30.28 "Hg12 mi
4:00 PM50 °FLow clouds.8 mph97%30.28 "Hg19 mi
3:00 PM50 °FDrizzle. Low clouds.9 mph96%30.29 "Hg16 mi
2:00 PM50 °FDrizzle. Low clouds.6 mph99%30.31 "Hg16 mi
1:00 PM51 °FLow clouds.8 mph96%30.33 "Hg22 mi
12:00 PM50 °FLow clouds.8 mph100%30.34 "Hg16 mi
11:00 AM49 °FFog.6 mph100%30.36 "Hg4 mi
10:00 AM49 °FFog.8 mph100%30.35 "Hg3 mi
9:00 AM48 °FFog.8 mph100%30.37 "Hg1 mi
8:00 AM47 °FFog.8 mph100%30.37 "Hg1 mi
7:00 AM46 °FDrizzle. Low clouds.7 mph100%30.39 "Hg2 mi
6:00 AM46 °FDrizzle. Low clouds.8 mph100%30.40 "Hg1 mi
5:00 AM45 °FDrizzle. Low clouds.8 mph99%30.41 "Hg4 mi
4:00 AM45 °FOvercast.6 mph91%30.42 "Hg19 mi
Weather by CustomWeather, © 2014

See weather overviewHow to use our weather pages